Showing default

ICEYE-X63, 67372

Orbit data source: Space-Track

ICEYE-X63, 67372 is a payload satellite owned by ICEYE (FI) in SSO that was launched on Sun, 11 Jan 2026 UTC via an FALCON 9 launch vehicle from the Air Force Western Test Range (AFWTR). Payload-class satellites include a variety of spacecraft equipped with specific instruments for various scientific and technological missions. These include communications satellites like Starlink; space stations such as the ISS; scientific satellites like the Hubble; Earth observation satellites from companies like Planet Labs, Umbra, and HawkEye 360; GPS; miniature CubeSats for education and research; and military/defense satellites.

Loading next visibility...
Identifier
67372, 2026-004K
Orbit
SSO
Country
Flag of FIFI / FIN
Related business
Manufacturer
ICEYE
Mission
Operational Commercial Radar Imaging
Bus & Motor
ICEYE, Unknown motor
Mass
120 kg wet, 120 kg dry
Launch date (UTC)
2026-01-11 (4 months ago)
Launch vehicle
FALCON 9
Launch site
Air Force Western Test Range (AFWTR)
Object type
Payload
Rocket body
Debris
Shape & HBR
Box + 1 Pan, 2.4 m
Radar Cross Section
0.776 m²

Expand to show TLE details & history
Last TLE update: 13 hours ago

TLE from 13 hours ago
0 ICEYE-X63
1 67372U 26004K   26146.23102428  .00000957  00000-0  10954-3 0  9991
2 67372  97.8000 145.2159 0003854 180.3173 179.8042 14.88253675 20036
Epoch: 2026-05-26T05:32Z
TLE epoch observation values (Epoch: 2026-05-26T05:32:40.497Z)
Latitude
-0.00004°
Longitude
178.23973°
Altitude
609.119 km
Speed
7.553 km/s
True Right ascension
09h 40m 51s
True Declination
0° 00' 00"
Sunlit
Object was in daylight at epoch
Visualization orbit readout
Latitude
Unknown
Longitude
Unknown
Altitude
Unknown
Speed
Unknown
Apparent Right ascension
Unknown
Apparent Declination
Unknown
Sunlit
N/A
Visualization observer readout
Local Sidereal Time
03:34:38
Azimuth
Unknown
Elevation
Unknown
Doppler factor
Unknown
Orbital elements
Apogee altitude
603.107 km
Perigee altitude
597.728 km
Semi-major axis
6,978.554 km
Eccentricity
0.00039
Inclination
97.8°
RAAN
145.2159°
Arg. of periapsis
180.3173°
True anomaly
179.80435°
Mean anomaly
179.8042°
Eccentric anomaly
179.80428°
Mean motion
3.72302 °/min
Orbital period
96.7 mins
BSTAR
0.00010954
Loading maneuver chart data...
Computing Atmospheric mass density...
Loading historical data...
Loading historical data...
Loading historical data...
Loading historical data...
Loading historical data...
Loading historical data...
Loading historical data...

Documentation

Showing up to 5 results
|